Total_Precipitation_Accumulation
0.04 0.05 0.04 0.04 0.03 0.02 0.02 0.03 0.03 0.03 0.03 0.04 0.03 0.02 0.03 0.03 0.02 0.03 0.03 0.03 0.01 0.03 0.04 0.01 0.01 0.01 0.00 0.01 0.00 0.00 0.00 0.00 0.00 0.00 0.00 0.00 0.00 0.00 0.00 0.00 0.00 0.00 0.00 0.00 0.00 0.00 0.00 0.00 0.00 0.00 0.00 0.00 0.00 0.00 0.00 0.00 0.00 0.00 0.00 0.00 0.00 0.00 0.00 0.00 0.00 0.00 0.00 0.00 0.00 0.00 0.00 0.00 0.00 0.00 0.00 0.00 0.00 0.00 0.01 0.00 0.01 0.01 0.12 0.09 0.08 0.16 0.08 0.08
0.04 0.04 0.04 0.03 0.03 0.04 0.03 0.02 0.03 0.03 0.02 0.01 0.02 0.02 0.03 0.02 0.02 0.01 0.03 0.02 0.02 0.02 0.01 0.02 0.00 0.01 0.01 0.00 0.00 0.00 0.00 0.00 0.00 0.00 0.00 0.00 0.00 0.00 0.00 0.00 0.00 0.00 0.00 0.00 0.00 0.00 0.00 0.00 0.00 0.00 0.00 0.00 0.00 0.00 0.00 0.00 0.00 0.00 0.00 0.00 0.00 0.00 0.00 0.00 0.00 0.00 0.00 0.00 0.00 0.00 0.00 0.00 0.00 0.00 0.00 0.02 0.00 0.00 0.01 0.02 0.04 0.06 0.08 0.14 0.11 0.08 0.12 0.09
0.04 0.03 0.04 0.03 0.04 0.05 0.04 0.03 0.03 0.03 0.03 0.02 0.02 0.02 0.02 0.02 0.02 0.01 0.01 0.02 0.01 0.01 0.01 0.01 0.01 0.01 0.00 0.00 0.00 0.00 0.00 0.00 0.00 0.00 0.00 0.00 0.00 0.00 0.00 0.00 0.00 0.00 0.00 0.00 0.00 0.00 0.00 0.00 0.00 0.00 0.00 0.00 0.00 0.00 0.00 0.00 0.00 0.00 0.00 0.00 0.00 0.00 0.00 0.00 0.00 0.00 0.00 0.00 0.00 0.00 0.00 0.00 0.00 0.00 0.00 0.03 0.01 0.00 0.00 0.02 0.05 0.13 0.19 0.13 0.13 0.11 0.13 0.14
0.04 0.03 0.03 0.04 0.04 0.04 0.04 0.04 0.03 0.04 0.04 0.03 0.02 0.03 0.03 0.02 0.02 0.02 0.02 0.01 0.01 0.01 0.01 0.01 0.01 0.01 0.00 0.00 0.00 0.00 0.00 0.00 0.00 0.00 0.00 0.00 0.00 0.00 0.00 0.00 0.00 0.00 0.00 0.00 0.00 0.00 0.00 0.00 0.00 0.00 0.00 0.00 0.00 0.00 0.00 0.00 0.00 0.00 0.00 0.00 0.00 0.00 0.00 0.00 0.00 0.00 0.00 0.00 0.00 0.00 0.00 0.00 0.00 0.00 0.00 0.00 0.03 0.03 0.01 0.02 0.10 0.12 0.22 0.14 0.17 0.12 0.12 0.33
0.04 0.03 0.04 0.03 0.03 0.03 0.03 0.04 0.04 0.04 0.04 0.04 0.03 0.03 0.03 0.02 0.02 0.02 0.02 0.01 0.01 0.01 0.01 0.01 0.00 0.00 0.00 0.00 0.00 0.00 0.00 0.00 0.00 0.00 0.00 0.00 0.00 0.00 0.00 0.00 0.00 0.00 0.00 0.00 0.00 0.00 0.00 0.00 0.00 0.00 0.00 0.00 0.00 0.00 0.00 0.00 0.00 0.00 0.00 0.00 0.00 0.00 0.00 0.00 0.00 0.00 0.00 0.00 0.00 0.00 0.00 0.00 0.00 0.00 0.00 0.00 0.02 0.12 0.07 0.07 0.01 0.02 0.34 0.37 0.10 0.10 0.27 0.33
0.03 0.03 0.02 0.02 0.02 0.03 0.04 0.03 0.03 0.03 0.03 0.03 0.03 0.03 0.02 0.03 0.02 0.03 0.02 0.02 0.02 0.02 0.01 0.01 0.00 0.00 0.00 0.00 0.00 0.00 0.00 0.00 0.00 0.00 0.00 0.00 0.00 0.00 0.00 0.00 0.00 0.00 0.00 0.00 0.00 0.00 0.00 0.00 0.00 0.00 0.00 0.00 0.00 0.00 0.00 0.00 0.00 0.00 0.00 0.00 0.00 0.00 0.00 0.00 0.00 0.00 0.00 0.00 0.00 0.00 0.00 0.00 0.00 0.00 0.00 0.00 0.01 0.04 0.02 0.06 0.05 0.01 0.09 0.29 0.16 0.33 0.40 0.71
0.02 0.02 0.01 0.01 0.02 0.03 0.03 0.04 0.03 0.03 0.02 0.02 0.01 0.03 0.02 0.04 0.03 0.02 0.02 0.02 0.02 0.01 0.01 0.01 0.00 0.00 0.00 0.00 0.00 0.00 0.00 0.00 0.00 0.00 0.00 0.00 0.00 0.00 0.00 0.00 0.00 0.00 0.00 0.00 0.00 0.00 0.00 0.00 0.00 0.00 0.00 0.00 0.00 0.00 0.00 0.00 0.00 0.00 0.00 0.00 0.00 0.00 0.00 0.00 0.00 0.00 0.00 0.00 0.00 0.00 0.00 0.00 0.00 0.00 0.00 0.00 0.00 0.00 0.03 0.05 0.02 0.07 0.09 0.15 0.12 0.28 0.31 0.43
0.02 0.01 0.02 0.02 0.02 0.02 0.02 0.02 0.02 0.02 0.02 0.02 0.02 0.02 0.02 0.02 0.04 0.02 0.03 0.02 0.02 0.01 0.01 0.01 0.00 0.00 0.00 0.00 0.00 0.00 0.00 0.00 0.00 0.00 0.00 0.00 0.00 0.00 0.00 0.00 0.00 0.00 0.00 0.00 0.00 0.00 0.00 0.00 0.00 0.00 0.00 0.00 0.00 0.00 0.00 0.00 0.00 0.00 0.00 0.00 0.00 0.00 0.00 0.00 0.00 0.00 0.00 0.00 0.00 0.00 0.00 0.00 0.00 0.00 0.00 0.01 0.00 0.00 0.02 0.02 0.00 0.02 0.04 0.12 0.07 0.25 0.40 0.61
0.02 0.01 0.02 0.02 0.02 0.01 0.01 0.01 0.01 0.01 0.02 0.01 0.02 0.02 0.03 0.02 0.02 0.02 0.02 0.03 0.02 0.02 0.01 0.01 0.00 0.00 0.00 0.00 0.00 0.00 0.00 0.00 0.00 0.00 0.00 0.00 0.00 0.00 0.00 0.00 0.00 0.00 0.00 0.00 0.00 0.00 0.00 0.00 0.00 0.00 0.00 0.00 0.00 0.00 0.00 0.00 0.00 0.00 0.00 0.00 0.00 0.00 0.00 0.00 0.00 0.00 0.00 0.00 0.00 0.00 0.00 0.00 0.00 0.00 0.00 0.03 0.00 0.00 0.00 0.00 0.02 0.04 0.05 0.20 0.14 0.19 0.31 0.47
0.02 0.02 0.02 0.01 0.01 0.01 0.01 0.01 0.01 0.02 0.02 0.01 0.01 0.01 0.02 0.02 0.02 0.03 0.01 0.01 0.02 0.02 0.01 0.01 0.00 0.00 0.00 0.00 0.00 0.00 0.00 0.00 0.00 0.00 0.00 0.00 0.00 0.00 0.00 0.00 0.00 0.00 0.00 0.00 0.00 0.00 0.00 0.00 0.00 0.00 0.00 0.00 0.00 0.00 0.00 0.00 0.00 0.00 0.00 0.00 0.00 0.00 0.00 0.00 0.00 0.00 0.00 0.00 0.00 0.00 0.00 0.00 0.00 0.00 0.00 0.00 0.00 0.00 0.00 0.00 0.06 0.03 0.07 0.08 0.16 0.28 0.58 0.44
0.02 0.02 0.01 0.01 0.01 0.00 0.01 0.01 0.01 0.02 0.02 0.02 0.02 0.03 0.02 0.02 0.02 0.01 0.03 0.01 0.01 0.01 0.01 0.00 0.00 0.00 0.00 0.00 0.00 0.00 0.00 0.00 0.00 0.00 0.00 0.00 0.00 0.00 0.00 0.00 0.00 0.00 0.00 0.00 0.00 0.00 0.00 0.00 0.00 0.00 0.00 0.00 0.00 0.00 0.00 0.00 0.00 0.00 0.00 0.00 0.00 0.00 0.00 0.00 0.00 0.00 0.00 0.00 0.00 0.00 0.00 0.00 0.00 0.00 0.00 0.00 0.00 0.00 0.00 0.01 0.02 0.03 0.04 0.23 0.63 0.75 0.49 0.57
0.02 0.02 0.01 0.00 0.02 0.02 0.02 0.01 0.02 0.01 0.02 0.03 0.03 0.03 0.03 0.02 0.02 0.01 0.01 0.02 0.01 0.01 0.00 0.00 0.01 0.03 0.01 0.00 0.00 0.00 0.00 0.00 0.00 0.00 0.00 0.00 0.00 0.00 0.00 0.00 0.00 0.00 0.00 0.00 0.00 0.00 0.00 0.00 0.00 0.00 0.00 0.00 0.00 0.00 0.00 0.00 0.00 0.00 0.00 0.00 0.00 0.00 0.00 0.00 0.00 0.00 0.00 0.00 0.00 0.00 0.00 0.00 0.00 0.00 0.00 0.00 0.00 0.00 0.00 0.04 0.02 0.02 0.03 0.25 0.51 0.47 0.36 0.42
0.01 0.01 0.01 0.01 0.02 0.03 0.01 0.01 0.02 0.02 0.02 0.03 0.02 0.03 0.02 0.02 0.01 0.01 0.01 0.01 0.00 0.01 0.00 0.00 0.00 0.00 0.00 0.00 0.00 0.00 0.00 0.00 0.00 0.00 0.00 0.00 0.00 0.00 0.00 0.00 0.00 0.00 0.00 0.00 0.00 0.00 0.00 0.00 0.00 0.00 0.00 0.00 0.00 0.00 0.00 0.00 0.00 0.00 0.00 0.00 0.00 0.00 0.00 0.00 0.00 0.00 0.00 0.00 0.00 0.00 0.00 0.00 0.00 0.00 0.00 0.00 0.01 0.01 0.01 0.02 0.03 0.02 0.06 0.43 0.30 0.26 0.39 0.37
0.04 0.02 0.03 0.02 0.01 0.01 0.01 0.01 0.02 0.02 0.02 0.01 0.02 0.02 0.01 0.02 0.02 0.01 0.01 0.01 0.01 0.02 0.02 0.02 0.03 0.01 0.00 0.00 0.00 0.00 0.00 0.00 0.00 0.00 0.00 0.00 0.00 0.00 0.00 0.00 0.00 0.00 0.00 0.00 0.00 0.00 0.00 0.00 0.00 0.00 0.00 0.00 0.00 0.00 0.00 0.00 0.00 0.00 0.00 0.00 0.00 0.00 0.00 0.00 0.00 0.00 0.00 0.00 0.00 0.00 0.00 0.00 0.00 0.00 0.00 0.01 0.00 0.00 0.00 0.01 0.02 0.05 0.08 0.16 0.18 0.30 0.31 0.40
0.03 0.04 0.02 0.02 0.02 0.01 0.02 0.02 0.01 0.01 0.01 0.01 0.01 0.01 0.01 0.01 0.01 0.01 0.02 0.01 0.02 0.00 0.01 0.07 0.04 0.01 0.00 0.00 0.00 0.00 0.00 0.00 0.00 0.00 0.00 0.00 0.00 0.00 0.00 0.00 0.00 0.00 0.00 0.00 0.00 0.00 0.00 0.00 0.00 0.00 0.00 0.00 0.00 0.00 0.00 0.00 0.00 0.00 0.00 0.00 0.00 0.00 0.00 0.00 0.00 0.00 0.00 0.00 0.00 0.00 0.00 0.00 0.00 0.00 0.00 0.00 0.01 0.00 0.00 0.01 0.03 0.04 0.14 0.24 0.23 0.30 0.17 0.33
0.04 0.03 0.03 0.02 0.02 0.02 0.01 0.03 0.02 0.02 0.01 0.02 0.02 0.01 0.01 0.02 0.01 0.02 0.01 0.01 0.01 0.00 0.01 0.03 0.01 0.01 0.00 0.00 0.00 0.00 0.00 0.00 0.00 0.00 0.00 0.00 0.00 0.00 0.00 0.00 0.00 0.00 0.00 0.00 0.00 0.00 0.00 0.00 0.00 0.00 0.00 0.00 0.00 0.00 0.00 0.00 0.00 0.00 0.00 0.00 0.00 0.00 0.00 0.00 0.00 0.00 0.00 0.00 0.00 0.00 0.00 0.00 0.00 0.00 0.00 0.01 0.01 0.01 0.00 0.01 0.01 0.04 0.17 0.47 0.26 0.17 0.18 0.22
0.04 0.04 0.04 0.03 0.03 0.01 0.02 0.02 0.02 0.02 0.01 0.01 0.01 0.01 0.01 0.00 0.00 0.01 0.01 0.02 0.02 0.00 0.04 0.00 0.00 0.01 0.00 0.00 0.00 0.00 0.00 0.00 0.00 0.00 0.00 0.00 0.00 0.00 0.00 0.00 0.00 0.00 0.00 0.00 0.00 0.00 0.00 0.00 0.00 0.00 0.00 0.00 0.00 0.00 0.00 0.00 0.00 0.00 0.00 0.00 0.00 0.00 0.00 0.00 0.00 0.00 0.00 0.00 0.00 0.00 0.00 0.01 0.00 0.00 0.00 0.01 0.01 0.01 0.01 0.01 0.01 0.02 0.04 0.27 0.33 0.26 0.22 0.18
0.03 0.03 0.04 0.03 0.02 0.04 0.02 0.01 0.02 0.01 0.01 0.01 0.01 0.00 0.01 0.00 0.00 0.01 0.01 0.00 0.00 0.00 0.01 0.00 0.00 0.00 0.00 0.00 0.00 0.00 0.00 0.00 0.00 0.00 0.00 0.00 0.00 0.00 0.00 0.00 0.00 0.00 0.00 0.00 0.00 0.00 0.00 0.00 0.00 0.00 0.00 0.00 0.00 0.00 0.00 0.00 0.00 0.00 0.00 0.00 0.00 0.00 0.00 0.00 0.00 0.00 0.00 0.00 0.00 0.00 0.00 0.00 0.00 0.00 0.00 0.00 0.01 0.01 0.01 0.01 0.02 0.02 0.05 0.20 0.13 0.27 0.21 0.28
0.05 0.05 0.07 0.05 0.04 0.02 0.02 0.01 0.01 0.01 0.01 0.00 0.00 0.01 0.00 0.00 0.01 0.01 0.00 0.02 0.00 0.01 0.00 0.00 0.00 0.00 0.02 0.00 0.00 0.00 0.00 0.00 0.00 0.00 0.00 0.00 0.00 0.00 0.00 0.00 0.00 0.00 0.00 0.00 0.00 0.00 0.00 0.00 0.00 0.00 0.00 0.00 0.00 0.00 0.00 0.00 0.00 0.00 0.01 0.00 0.00 0.00 0.00 0.00 0.00 0.00 0.00 0.00 0.00 0.00 0.00 0.00 0.00 0.00 0.00 0.01 0.01 0.01 0.00 0.01 0.01 0.02 0.05 0.06 0.09 0.27 0.49 0.38
0.06 0.07 0.05 0.03 0.04 0.03 0.02 0.01 0.01 0.01 0.01 0.00 0.01 0.00 0.01 0.00 0.04 0.00 0.01 0.02 0.00 0.00 0.00 0.00 0.00 0.00 0.00 0.00 0.00 0.00 0.00 0.00 0.00 0.00 0.00 0.00 0.00 0.00 0.00 0.00 0.00 0.00 0.00 0.00 0.00 0.00 0.00 0.00 0.00 0.00 0.00 0.00 0.00 0.00 0.00 0.00 0.00 0.00 0.00 0.00 0.00 0.00 0.00 0.00 0.00 0.00 0.00 0.00 0.00 0.00 0.00 0.00 0.00 0.00 0.00 0.00 0.01 0.01 0.09 0.01 0.01 0.02 0.03 0.06 0.16 0.26 0.43 0.42
0.04 0.06 0.04 0.07 0.03 0.02 0.01 0.01 0.01 0.01 0.01 0.04 0.01 0.00 0.00 0.00 0.00 0.02 0.00 0.00 0.00 0.00 0.00 0.00 0.00 0.00 0.00 0.00 0.00 0.00 0.00 0.00 0.00 0.00 0.00 0.00 0.00 0.00 0.00 0.00 0.00 0.00 0.00 0.00 0.00 0.00 0.00 0.00 0.00 0.00 0.00 0.00 0.00 0.00 0.00 0.00 0.00 0.00 0.00 0.00 0.00 0.00 0.00 0.00 0.00 0.00 0.00 0.00 0.00 0.00 0.00 0.00 0.00 0.00 0.00 0.00 0.00 0.01 0.01 0.02 0.02 0.01 0.03 0.04 0.04 0.18 0.18 0.27
0.05 0.05 0.07 0.05 0.04 0.01 0.01 0.01 0.01 0.00 0.01 0.02 0.01 0.00 0.00 0.00 0.00 0.00 0.00 0.02 0.00 0.00 0.00 0.00 0.00 0.00 0.00 0.00 0.00 0.00 0.00 0.00 0.00 0.00 0.00 0.00 0.00 0.00 0.00 0.00 0.00 0.00 0.00 0.00 0.00 0.00 0.00 0.00 0.00 0.00 0.00 0.00 0.00 0.00 0.00 0.00 0.00 0.00 0.00 0.00 0.00 0.00 0.00 0.00 0.00 0.00 0.00 0.00 0.00 0.00 0.02 0.00 0.01 0.01 0.02 0.01 0.01 0.03 0.04 0.04 0.05 0.05 0.05 0.10 0.12 0.24 0.38 0.21
0.16 0.03 0.03 0.06 0.03 0.02 0.01 0.01 0.00 0.01 0.03 0.03 0.01 0.00 0.00 0.00 0.00 0.00 0.00 0.00 0.00 0.00 0.00 0.00 0.00 0.00 0.00 0.00 0.00 0.00 0.00 0.00 0.00 0.00 0.00 0.00 0.00 0.00 0.00 0.00 0.00 0.00 0.00 0.00 0.00 0.00 0.00 0.00 0.00 0.00 0.00 0.00 0.00 0.00 0.00 0.00 0.00 0.00 0.00 0.00 0.00 0.00 0.00 0.02 0.00 0.00 0.00 0.00 0.00 0.00 0.02 0.00 0.00 0.01 0.02 0.02 0.01 0.01 0.02 0.04 0.04 0.03 0.04 0.04 0.10 0.18 0.08 0.09
0.11 0.17 0.21 0.23 0.13 0.06 0.02 0.00 0.00 0.04 0.03 0.00 0.00 0.00 0.00 0.00 0.00 0.00 0.00 0.00 0.00 0.00 0.00 0.00 0.00 0.00 0.00 0.00 0.00 0.00 0.00 0.00 0.00 0.00 0.00 0.00 0.00 0.00 0.00 0.00 0.00 0.00 0.00 0.00 0.00 0.00 0.00 0.00 0.00 0.00 0.00 0.00 0.00 0.00 0.00 0.00 0.00 0.00 0.00 0.00 0.00 0.00 0.00 0.00 0.03 0.00 0.00 0.00 0.00 0.00 0.01 0.01 0.00 0.02 0.02 0.01 0.02 0.00 0.01 0.03 0.02 0.02 0.02 0.02 0.09 0.17 0.06 0.06
0.06 0.23 0.20 0.08 0.06 0.07 0.02 0.00 0.01 0.00 0.00 0.00 0.00 0.00 0.00 0.00 0.00 0.00 0.00 0.00 0.00 0.00 0.00 0.00 0.00 0.00 0.00 0.00 0.00 0.00 0.00 0.00 0.00 0.00 0.00 0.00 0.00 0.00 0.00 0.00 0.00 0.00 0.00 0.00 0.00 0.00 0.00 0.00 0.00 0.00 0.00 0.00 0.00 0.00 0.00 0.00 0.00 0.00 0.00 0.00 0.00 0.00 0.00 0.00 0.00 0.00 0.00 0.01 0.00 0.02 0.01 0.04 0.02 0.01 0.02 0.01 0.01 0.02 0.04 0.02 0.03 0.03 0.01 0.01 0.05 0.04 0.06 0.07
0.12 0.08 0.14 0.10 0.06 0.08 0.05 0.01 0.02 0.02 0.00 0.00 0.00 0.00 0.00 0.00 0.00 0.00 0.00 0.01 0.02 0.02 0.00 0.00 0.00 0.00 0.00 0.00 0.00 0.00 0.00 0.00 0.00 0.00 0.00 0.00 0.00 0.00 0.00 0.00 0.00 0.00 0.00 0.00 0.00 0.00 0.01 0.00 0.00 0.00 0.00 0.00 0.00 0.00 0.00 0.00 0.00 0.00 0.01 0.00 0.00 0.00 0.00 0.00 0.00 0.00 0.01 0.01 0.05 0.00 0.01 0.04 0.01 0.03 0.01 0.02 0.01 0.04 0.04 0.02 0.03 0.02 0.01 0.01 0.05 0.14 0.10 0.09
0.05 0.09 0.11 0.17 0.13 0.09 0.04 0.05 0.02 0.04 0.01 0.00 0.00 0.00 0.00 0.00 0.01 0.00 0.01 0.05 0.07 0.02 0.00 0.00 0.00 0.00 0.00 0.00 0.00 0.00 0.00 0.01 0.00 0.00 0.00 0.00 0.00 0.00 0.00 0.00 0.00 0.00 0.00 0.00 0.00 0.00 0.00 0.00 0.00 0.00 0.00 0.00 0.00 0.00 0.00 0.00 0.00 0.01 0.01 0.00 0.00 0.00 0.00 0.00 0.00 0.00 0.02 0.00 0.01 0.00 0.00 0.09 0.05 0.04 0.01 0.01 0.01 0.02 0.03 0.04 0.03 0.03 0.03 0.06 0.12 0.58 0.15 0.06
0.15 0.40 0.16 0.08 0.11 0.04 0.04 0.03 0.02 0.03 0.03 0.04 0.00 0.00 0.00 0.00 0.00 0.01 0.06 0.06 0.07 0.00 0.02 0.00 0.00 0.00 0.00 0.00 0.00 0.00 0.00 0.00 0.00 0.00 0.00 0.00 0.00 0.00 0.00 0.00 0.00 0.00 0.00 0.00 0.01 0.00 0.00 0.00 0.00 0.00 0.00 0.00 0.00 0.00 0.00 0.00 0.00 0.00 0.00 0.00 0.00 0.00 0.00 0.00 0.01 0.01 0.02 0.01 0.04 0.00 0.00 0.02 0.06 0.13 0.06 0.03 0.02 0.01 0.07 0.06 0.07 0.05 0.04 0.05 0.18 0.10 0.08 0.07
0.27 0.14 0.20 0.16 0.02 0.02 0.03 0.03 0.03 0.05 0.01 0.00 0.00 0.00 0.00 0.01 0.02 0.14 0.24 0.10 0.19 0.01 0.00 0.02 0.00 0.00 0.00 0.00 0.00 0.00 0.00 0.00 0.00 0.00 0.00 0.00 0.00 0.00 0.00 0.00 0.00 0.00 0.00 0.00 0.01 0.01 0.00 0.00 0.00 0.00 0.00 0.00 0.00 0.00 0.00 0.00 0.00 0.00 0.00 0.00 0.00 0.00 0.00 0.00 0.02 0.00 0.09 0.01 0.02 0.04 0.08 0.02 0.17 0.04 0.15 0.03 0.04 0.07 0.11 0.11 0.15 0.14 0.13 0.17 0.14 0.12 0.08 0.08
0.05 0.09 0.07 0.06 0.05 0.05 0.02 0.03 0.01 0.01 0.01 0.01 0.02 0.01 0.01 0.05 0.21 0.14 0.14 0.01 0.01 0.07 0.00 0.00 0.03 0.01 0.00 0.00 0.00 0.00 0.00 0.00 0.00 0.00 0.00 0.00 0.00 0.00 0.00 0.00 0.00 0.00 0.00 0.00 0.00 0.00 0.01 0.00 0.00 0.00 0.00 0.00 0.00 0.00 0.00 0.00 0.00 0.00 0.00 0.00 0.00 0.00 0.00 0.01 0.01 0.01 0.05 0.01 0.01 0.01 0.05 0.00 0.12 0.12 0.07 0.06 0.09 0.11 0.09 0.10 0.13 0.09 0.11 0.09 0.26 0.12 0.09 0.11
0.05 0.04 0.02 0.04 0.09 0.04 0.02 0.05 0.01 0.04 0.00 0.01 0.00 0.02 0.05 0.05 0.30 0.06 0.02 0.04 0.00 0.04 0.00 0.00 0.00 0.00 0.00 0.00 0.00 0.00 0.00 0.00 0.00 0.00 0.00 0.00 0.00 0.00 0.00 0.00 0.00 0.00 0.00 0.00 0.00 0.00 0.00 0.00 0.00 0.00 0.00 0.00 0.00 0.00 0.00 0.00 0.00 0.00 0.00 0.01 0.00 0.03 0.02 0.02 0.02 0.02 0.07 0.00 0.02 0.03 0.01 0.04 0.11 0.39 0.39 0.15 0.17 0.09 0.10 0.08 0.11 0.11 0.09 0.10 0.12 0.11 0.09 0.11
0.05 0.02 0.01 0.08 0.03 0.05 0.05 0.16 0.17 0.04 0.13 0.03 0.00 0.04 0.10 0.18 0.07 0.17 0.01 0.00 0.15 0.11 0.01 0.02 0.00 0.00 0.00 0.00 0.00 0.00 0.00 0.00 0.00 0.00 0.00 0.00 0.00 0.00 0.00 0.00 0.00 0.00 0.01 0.00 0.04 0.00 0.00 0.00 0.00 0.00 0.00 0.00 0.00 0.00 0.00 0.00 0.00 0.00 0.00 0.01 0.17 0.18 0.01 0.08 0.03 0.02 0.00 0.01 0.04 0.00 0.00 0.03 0.03 0.11 0.36 0.10 0.08 0.06 0.06 0.07 0.12 0.09 0.07 0.05 0.13 0.08 0.12 0.11
0.00 0.01 0.02 0.03 0.03 0.04 0.02 0.02 0.08 0.11 0.08 0.06 0.02 0.56 0.35 0.25 0.03 0.03 0.03 0.00 0.29 0.03 0.05 0.01 0.01 0.00 0.02 0.00 0.00 0.00 0.00 0.02 0.02 0.00 0.00 0.00 0.00 0.00 0.00 0.00 0.00 0.00 0.04 0.03 0.03 0.00 0.02 0.00 0.00 0.00 0.00 0.00 0.00 0.00 0.01 0.01 0.00 0.00 0.01 0.09 0.05 0.12 0.05 0.02 0.07 0.02 0.06 0.02 0.01 0.02 0.04 0.09 0.44 0.38 0.27 0.18 0.14 0.11 0.07 0.09 0.07 0.06 0.09 0.10 0.11 0.11 0.13 0.14
0.01 0.01 0.05 0.01 0.02 0.02 0.01 0.12 0.15 0.05 0.11 0.00 0.03 0.24 0.55 0.10 0.01 0.00 0.04 0.01 0.28 0.03 0.01 0.05 0.01 0.00 0.00 0.03 0.12 0.00 0.01 0.00 0.00 0.00 0.00 0.02 0.00 0.01 0.00 0.00 0.00 0.00 0.00 0.07 0.02 0.01 0.02 0.14 0.00 0.00 0.01 0.00 0.00 0.00 0.00 0.04 0.00 0.00 0.00 0.01 0.07 0.09 0.05 0.02 0.05 0.08 0.02 0.12 0.05 0.02 0.01 0.11 0.15 1.78 0.15 0.11 0.11 0.02 0.03 0.08 0.03 0.03 0.06 0.10 0.17 0.08 0.12 0.41
0.01 0.02 0.02 0.03 0.04 0.01 0.01 0.07 0.18 0.02 0.09 0.02 0.11 0.25 0.19 0.03 0.06 0.02 0.02 0.05 0.20 0.24 0.04 0.01 0.04 0.00 0.01 0.00 0.01 0.01 0.00 0.13 0.00 0.01 0.00 0.00 0.03 0.00 0.01 0.00 0.00 0.00 0.00 0.00 0.05 0.00 0.01 0.08 0.01 0.00 0.00 0.00 0.00 0.00 0.00 0.00 0.02 0.00 0.01 0.01 0.04 0.04 0.01 0.07 0.22 0.03 0.13 0.07 0.03 0.08 0.06 0.30 0.70 1.26 0.45 0.14 0.05 0.05 0.04 0.02 0.05 0.05 0.05 0.10 0.19 0.27 0.23 0.38
0.01 0.02 0.03 0.04 0.02 0.00 0.01 0.40 0.09 0.04 0.06 0.04 0.28 0.25 0.11 0.03 0.11 0.07 0.23 0.03 0.11 0.15 0.05 0.02 0.01 0.03 0.01 0.02 0.00 0.02 0.04 0.04 0.13 0.02 0.06 0.00 0.00 0.03 0.00 0.00 0.00 0.00 0.03 0.00 0.09 0.05 0.00 0.10 0.01 0.01 0.00 0.00 0.00 0.00 0.00 0.00 0.23 0.07 0.00 0.05 0.01 0.01 0.01 0.01 0.00 0.01 0.00 0.00 0.06 0.01 0.11 0.46 0.34 1.14 0.38 0.45 0.17 0.10 0.05 0.04 0.06 0.07 0.06 0.18 0.28 0.23 0.35 0.48
0.05 0.05 0.05 0.02 0.01 0.01 0.04 0.21 0.02 0.01 0.00 0.06 0.20 0.15 0.05 0.04 0.05 0.07 0.24 0.05 0.18 0.21 0.05 0.09 0.03 0.01 0.02 0.02 0.06 0.00 0.09 0.01 0.12 0.02 0.21 0.01 0.06 0.00 0.00 0.00 0.00 0.00 0.00 0.00 0.06 0.00 0.11 0.22 0.01 0.01 0.00 0.00 0.00 0.00 0.00 0.00 0.00 0.00 0.03 0.04 0.00 0.00 0.03 0.02 0.09 0.08 0.01 0.01 0.08 0.02 0.07 0.39 0.22 0.64 0.53 0.30 0.20 0.20 0.16 0.09 0.06 0.14 0.21 0.29 0.49 0.77 0.90 1.01
0.10 0.14 0.11 0.04 0.01 0.02 0.04 0.12 0.00 0.00 0.02 0.07 0.10 0.09 0.07 0.10 0.11 0.09 0.08 0.11 0.11 0.19 0.32 0.09 0.16 0.00 0.02 0.05 0.06 0.02 0.05 0.02 0.26 0.03 0.18 0.05 0.28 0.00 0.02 0.01 0.00 0.00 0.00 0.00 0.02 0.03 0.00 0.13 0.05 0.00 0.00 0.01 0.00 0.00 0.00 0.00 0.00 0.00 0.06 0.02 0.01 0.08 0.05 0.02 0.00 0.03 0.03 0.04 0.08 0.10 0.25 0.13 0.16 0.71 0.37 0.29 0.17 0.35 0.38 0.26 0.26 0.21 0.38 0.77 0.57 0.78 1.11 1.58
0.26 0.34 0.35 0.04 0.02 0.02 0.01 0.01 0.00 0.02 0.07 0.04 0.03 0.02 0.02 0.07 0.10 0.07 0.11 0.09 0.04 0.34 0.24 0.09 0.10 0.00 0.01 0.02 0.05 0.04 0.05 0.15 0.08 0.18 0.10 0.27 0.21 0.09 0.11 0.01 0.03 0.00 0.00 0.00 0.01 0.03 0.00 0.05 0.07 0.00 0.00 0.02 0.00 0.00 0.01 0.01 0.00 0.00 0.00 0.00 0.00 0.00 0.13 0.08 0.01 0.11 0.01 0.17 0.03 0.17 0.14 0.25 0.54 0.57 0.18 0.20 0.19 0.24 0.19 0.24 0.38 0.69 0.63 0.92 1.05 1.09 1.17 1.13
0.40 0.43 0.53 0.06 0.00 0.00 0.03 0.00 0.02 0.05 0.08 0.02 0.03 0.02 0.04 0.07 0.09 0.20 0.04 0.04 0.17 0.14 0.40 0.26 0.02 0.06 0.00 0.03 0.00 0.12 0.06 0.09 0.07 0.24 0.07 0.45 0.10 0.08 0.09 0.01 0.07 0.00 0.00 0.00 0.01 0.00 0.05 0.00 0.14 0.08 0.00 0.00 0.04 0.00 0.02 0.00 0.04 0.00 0.00 0.00 0.00 0.01 0.04 0.00 0.08 0.03 0.07 0.08 0.16 0.15 0.16 0.60 0.60 0.11 0.22 0.23 0.17 0.32 0.28 0.24 0.25 0.51 0.84 0.53 0.85 1.16 1.23 1.12
0.38 0.90 0.77 0.01 0.03 0.00 0.00 0.07 0.07 0.05 0.01 0.00 0.03 0.02 0.02 0.08 0.07 0.08 0.03 0.01 0.04 0.03 0.16 0.13 0.13 0.08 0.02 0.03 0.01 0.00 0.04 0.02 0.08 0.15 0.05 0.30 0.17 0.35 0.00 0.02 0.01 0.20 0.00 0.01 0.01 0.01 0.01 0.00 0.04 0.12 0.04 0.02 0.01 0.00 0.00 0.00 0.02 0.01 0.00 0.03 0.01 0.05 0.11 0.09 0.05 0.00 0.08 0.06 0.12 0.12 0.21 0.38 0.63 0.18 0.26 0.49 0.63 0.37 0.54 0.36 0.39 0.74 0.25 0.50 0.60 0.86 0.54 0.69
0.40 0.86 0.69 0.04 0.02 0.00 0.02 0.18 0.05 0.05 0.05 0.05 0.07 0.01 0.07 0.04 0.10 0.05 0.02 0.02 0.04 0.05 0.03 0.06 0.02 0.02 0.03 0.02 0.02 0.00 0.00 0.02 0.14 0.06 0.18 0.35 0.29 0.09 0.07 0.00 0.01 0.00 0.07 0.06 0.15 0.11 0.02 0.05 0.10 0.06 0.17 0.37 0.09 0.04 0.01 0.01 0.01 0.01 0.00 0.02 0.01 0.02 0.01 0.12 0.08 0.19 0.05 0.10 0.04 0.18 0.15 0.50 0.51 0.40 0.42 0.20 0.42 0.36 0.53 0.56 0.66 0.73 0.71 0.94 1.20 1.35 0.83 0.58
0.73 1.61 0.42 0.09 0.02 0.01 0.09 0.23 0.03 0.06 0.14 0.06 0.03 0.00 0.01 0.07 0.08 0.07 0.03 0.04 0.04 0.02 0.03 0.08 0.04 0.11 0.00 0.00 0.02 0.02 0.01 0.07 0.05 0.20 0.10 0.14 0.30 0.10 0.05 0.01 0.00 0.02 0.01 0.07 0.04 0.06 0.00 0.00 0.03 0.06 0.06 0.08 0.01 0.00 0.01 0.00 0.00 0.00 0.00 0.00 0.01 0.07 0.05 0.05 0.12 0.22 0.14 0.16 0.11 0.13 0.06 0.71 0.36 0.94 0.60 0.49 0.88 0.62 0.40 0.56 0.76 0.52 0.65 0.75 0.90 0.58 0.91 0.36
1.27 1.57 0.44 0.26 0.02 0.06 0.18 0.22 0.15 0.05 0.10 0.02 0.01 0.07 0.03 0.05 0.03 0.04 0.04 0.03 0.02 0.01 0.10 0.04 0.02 0.01 0.08 0.00 0.00 0.01 0.02 0.03 0.01 0.03 0.16 0.07 0.24 0.03 0.07 0.06 0.05 0.20 0.05 0.40 0.12 0.10 0.15 0.03 0.07 0.17 0.17 0.25 0.22 0.09 0.04 0.02 0.01 0.01 0.06 0.03 0.01 0.07 0.04 0.09 0.04 0.07 0.03 0.06 0.19 0.10 0.24 0.73 0.90 0.35 0.68 0.42 0.19 0.29 1.58 1.25 1.30 0.65 0.28 0.84 0.83 1.09 1.10 0.67
1.54 0.66 0.65 0.43 0.06 0.31 0.46 0.32 0.38 0.14 0.19 0.10 0.20 0.12 0.16 0.05 0.02 0.03 0.07 0.09 0.01 0.01 0.04 0.07 0.02 0.12 0.00 0.00 0.00 0.00 0.01 0.02 0.12 0.03 0.05 0.07 0.36 0.01 0.04 0.01 0.08 0.28 0.08 0.08 0.00 0.06 0.12 0.34 0.07 0.14 0.37 0.44 0.39 0.47 0.53 0.23 0.12 0.04 0.01 0.03 0.03 0.02 0.13 0.14 0.05 0.05 0.04 0.01 0.04 0.12 0.18 0.30 0.39 0.29 0.39 0.37 0.38 0.42 0.46 0.47 0.49 0.74 0.96 0.28 0.45 0.52 0.36 0.73
1.42 0.48 0.30 0.97 0.65 0.65 0.14 0.33 0.30 0.39 0.17 0.20 0.08 0.08 0.06 0.24 0.12 0.04 0.04 0.05 0.00 0.01 0.05 0.05 0.04 0.04 0.02 0.01 0.01 0.01 0.02 0.01 0.04 0.11 0.05 0.18 0.14 0.02 0.07 0.05 0.01 0.11 0.03 0.00 0.04 0.03 0.31 0.13 0.34 0.20 0.28 0.60 0.51 0.31 0.15 0.01 0.11 0.12 0.17 0.03 0.12 0.01 0.04 0.04 0.11 0.14 0.10 0.21 0.15 0.26 0.18 0.32 0.38 0.34 0.26 0.22 0.40 0.35 0.77 0.36 0.45 0.50 0.39 0.76 0.61 0.89 0.57 0.70
1.18 0.46 0.12 0.17 0.15 0.46 0.60 0.18 0.13 0.23 0.23 0.15 0.13 0.10 0.21 0.07 0.17 0.10 0.04 0.15 0.02 0.08 0.12 0.11 0.03 0.05 0.08 0.01 0.05 0.04 0.01 0.07 0.02 0.04 0.07 0.13 0.12 0.11 0.02 0.07 0.06 0.01 0.01 0.05 0.07 0.08 0.23 0.20 0.18 0.23 0.17 0.26 0.15 0.16 0.22 0.04 0.16 0.14 0.20 0.24 0.14 0.09 0.10 0.18 0.03 0.11 0.23 0.09 0.27 0.64 0.29 0.17 0.26 0.23 0.20 0.22 0.21 0.18 0.35 0.24 0.14 0.18 0.44 0.38 0.53 0.62 0.59 0.26
0.89 0.59 0.16 0.07 0.29 0.41 0.38 0.47 0.25 0.40 0.40 0.13 0.28 0.15 0.23 0.24 0.31 0.25 0.10 0.03 0.03 0.08 0.08 0.06 0.02 0.01 0.01 0.03 0.04 0.03 0.08 0.07 0.04 0.05 0.11 0.17 0.07 0.13 0.10 0.03 0.15 0.09 0.07 0.10 0.06 0.10 0.34 0.32 0.40 0.23 0.40 0.22 0.36 0.28 0.10 0.09 0.08 0.10 0.13 0.14 0.23 0.19 0.16 0.19 0.12 0.09 0.26 0.05 0.43 0.41 0.26 0.16 0.20 0.17 0.16 0.18 0.13 0.19 0.25 0.27 0.22 0.24 0.16 0.07 0.10 0.17 0.29 0.19
1.64 0.20 0.36 0.04 0.31 0.51 0.29 0.55 0.44 0.45 0.56 0.24 0.37 0.25 0.26 0.20 0.22 0.19 0.11 0.24 0.08 0.27 0.13 0.07 0.03 0.02 0.01 0.03 0.05 0.08 0.11 0.13 0.03 0.11 0.23 0.38 0.25 0.30 0.31 0.26 0.05 0.08 0.05 0.05 0.13 0.07 0.10 0.31 0.46 0.29 0.34 0.34 0.24 0.16 0.19 0.12 0.10 0.17 0.10 0.11 0.19 0.12 0.12 0.12 0.10 0.06 0.13 0.20 0.15 0.26 0.04 0.10 0.20 0.24 0.13 0.15 0.12 0.19 0.28 0.22 0.22 0.11 0.09 0.26 0.09 0.10 0.08 0.23
0.83 0.76 0.38 0.09 0.19 0.06 0.21 0.33 0.53 0.60 0.63 0.31 0.17 0.20 0.22 0.14 0.27 0.11 0.11 0.16 0.31 0.12 0.10 0.10 0.13 0.13 0.05 0.04 0.07 0.21 0.21 0.16 0.21 0.06 0.32 0.08 0.19 0.40 0.59 0.50 0.60 0.07 0.02 0.10 0.06 0.30 0.13 0.23 0.07 0.39 0.54 0.35 0.52 0.30 0.22 0.27 0.22 0.26 0.07 0.04 0.06 0.10 0.30 0.12 0.35 0.39 0.12 0.16 0.40 0.42 0.12 0.16 0.33 0.17 0.15 0.14 0.11 0.15 0.63 0.50 0.41 0.21 0.08 0.23 0.18 0.04 0.04 0.06
0.95 0.54 0.35 0.53 0.37 0.25 0.32 0.24 0.28 0.36 0.61 0.52 0.46 0.27 0.17 0.09 0.18 0.10 0.14 0.04 0.10 0.12 0.12 0.18 0.04 0.15 0.16 0.12 0.13 0.20 0.09 0.23 0.11 0.21 0.25 0.11 0.15 0.11 0.14 0.30 0.03 0.62 0.53 0.63 0.54 0.85 0.13 0.43 0.19 0.31 0.44 0.50 0.25 0.60 0.63 0.74 0.60 0.36 0.22 0.32 0.19 0.28 0.35 0.22 0.23 0.17 0.26 0.42 0.48 0.41 0.24 0.21 0.54 0.29 0.38 0.14 0.10 0.09 0.12 0.20 0.21 0.06 0.06 0.09 0.06 0.13 0.07 0.33
0.69 0.20 0.21 0.47 0.43 0.30 0.38 0.22 0.45 0.25 0.43 0.28 0.39 0.45 0.48 0.33 0.19 0.32 0.29 0.16 0.22 0.11 0.23 0.36 0.09 0.23 0.16 0.15 0.17 0.18 0.07 0.15 0.14 0.13 0.19 0.06 0.05 0.10 0.03 0.08 0.03 0.15 0.15 0.16 0.52 0.45 0.41 0.34 0.30 0.62 0.37 0.62 0.49 0.60 0.44 0.42 0.40 0.45 0.37 0.36 0.25 0.29 0.13 0.31 0.18 0.15 0.24 0.42 0.42 0.55 0.40 0.28 0.25 0.16 0.10 0.21 0.09 0.12 0.20 0.08 0.11 0.09 0.07 0.06 0.07 0.07 0.09 0.08